owner,sensor,date,latitude,longitude,vertical_datum,wind_speed,wind_to_direction,wind_speed_of_gust,qcFlag 
TABS,ioos:station:wmo:42047:1,2009-06-18T00:00:00Z,27.8966,-93.5973,4.0,1.974639208,263.0189589,3.25,'11111222,11111222,11111222' 
TABS,ioos:station:wmo:42047:1,2009-06-18T00:30:00Z,27.8966,-93.5973,4.0,2.636152499,266.0847307,3.8,'11111222,11111222,11111222' 
TABS,ioos:station:wmo:42047:1,2009-06-18T01:00:00Z,27.8966,-93.5973,4.0,1.299576854,309.6925803,3.11,'11111222,11111222,11111222' 
TABS,ioos:station:wmo:42047:1,2009-06-18T01:30:00Z,27.8966,-93.5973,4.0,2.348531456,265.1148089,3.54,'11111222,11111222,11111222' 
TABS,ioos:station:wmo:42047:1,2009-06-18T02:00:00Z,27.8966,-93.5973,4.0,2.461727036,264.4052156,3.69,'11111222,11111222,11111222' 
TABS,ioos:station:wmo:42047:1,2009-06-18T02:30:00Z,27.8966,-93.5973,4.0,2.596247292,263.5867109,3.85,'11111222,11111222,11111222' 
TABS,ioos:station:wmo:42047:1,2009-06-18T03:00:00Z,27.8966,-93.5973,4.0,2.684641503,264.0133499,3.88,'11111222,11111222,11111222' 
TABS,ioos:station:wmo:42047:1,2009-06-18T03:30:00Z,27.8966,-93.5973,4.0,2.730897288,268.5312027,3.62,'11111222,11111222,11111222' 
TABS,ioos:station:wmo:42047:1,2009-06-18T04:00:00Z,27.8966,-93.5973,4.0,2.998216136,263.6809264,4.38,'11111222,11111222,11111222' 
TABS,ioos:station:wmo:42047:1,2009-06-18T04:30:00Z,27.8966,-93.5973,4.0,3.098709409,263.700661,5.12,'11111222,11111222,11111222' 
TABS,ioos:station:wmo:42047:1,2009-06-18T05:00:00Z,27.8966,-93.5973,4.0,3.402425605,263.4180707,5.32,'11111222,11111222,11111222' 
TABS,ioos:station:wmo:42047:1,2009-06-18T05:30:00Z,27.8966,-93.5973,4.0,3.402425605,263.4180707,5.76,'11111222,11111222,11111222' 
TABS,ioos:station:wmo:42047:1,2009-06-18T06:00:00Z,27.8966,-93.5973,4.0,3.299696956,263.736524,5.41,'11111222,11111222,11111222' 
TABS,ioos:station:wmo:42047:1,2009-06-18T06:30:00Z,27.8966,-93.5973,4.0,3.273316361,263.1572426,5.12,'11111222,11111222,11111222' 
TABS,ioos:station:wmo:42047:1,2009-06-18T07:00:00Z,27.8966,-93.5973,4.0,3.306780912,262.7030709,4.91,'11111222,11111222,11111222' 
TABS,ioos:station:wmo:42047:1,2009-06-18T07:30:00Z,27.8966,-93.5973,4.0,3.084752826,262.7367722,4.6,'11111222,11111222,11111222' 
TABS,ioos:station:wmo:42047:1,2009-06-18T08:00:00Z,27.8966,-93.5973,4.0,3.091035425,263.3118367,4.37,'11111222,11111222,11111222' 
TABS,ioos:station:wmo:42047:1,2009-06-18T08:30:00Z,27.8966,-93.5973,4.0,2.961367927,268.2584392,4.12,'11111222,11111222,11111222' 
TABS,ioos:station:wmo:42047:1,2009-06-18T09:00:00Z,27.8966,-93.5973,4.0,2.930273025,269.2178555,3.91,'11111222,11111222,11111222' 
TABS,ioos:station:wmo:42047:1,2009-06-18T09:30:00Z,27.8966,-93.5973,4.0,3.093428519,262.9439205,4.91,'11111222,11111222,11111222' 
TABS,ioos:station:wmo:42047:1,2009-06-18T10:00:00Z,27.8966,-93.5973,4.0,2.563825267,273.1302375,3.52,'11111222,11111222,11111222' 
TABS,ioos:station:wmo:42047:1,2009-06-18T10:30:00Z,27.8966,-93.5973,4.0,0.270739727,274.2363849,4.76,'11111222,11111222,11111222' 
TABS,ioos:station:wmo:42047:1,2009-06-18T11:00:00Z,27.8966,-93.5973,4.0,0.553172667,77.47080067,4.4,'11111222,11111222,11111222' 
TABS,ioos:station:wmo:42047:1,2009-06-18T11:30:00Z,27.8966,-93.5973,4.0,0.063245553,18.43469526,3.41,'11111222,11111222,11111222' 
TABS,ioos:station:wmo:42047:1,2009-06-18T12:00:00Z,27.8966,-93.5973,4.0,0.0,0.0,0.0,'11111222,11111222,11111222' 
TABS,ioos:station:wmo:42047:1,2009-06-18T12:30:00Z,27.8966,-93.5973,4.0,0.0,0.0,0.0,'11111222,11111222,11111222' 
TABS,ioos:station:wmo:42047:1,2009-06-18T13:00:00Z,27.8966,-93.5973,4.0,0.0,0.0,0.0,'11111222,11111222,11111222' 
TABS,ioos:station:wmo:42047:1,2009-06-18T13:30:00Z,27.8966,-93.5973,4.0,0.0,0.0,0.0,'11111222,11111222,11111222' 
TABS,ioos:station:wmo:42047:1,2009-06-18T14:00:00Z,27.8966,-93.5973,4.0,2.578158257,165.8562,3.84,'11111222,11111222,11111222' 
TABS,ioos:station:wmo:42047:1,2009-06-18T14:10:00Z,27.8966,-93.5973,4.0,0.0,0.0,0.0,'11111222,11111222,11111222' 
TABS,ioos:station:wmo:42047:1,2009-06-18T14:30:00Z,27.8966,-93.5973,4.0,1.1646888,113.263552,3.48,'11111222,11111222,11111222' 
TABS,ioos:station:wmo:42047:1,2009-06-18T15:00:00Z,27.8966,-93.5973,4.0,1.120089282,187.6962442,5.5,'11111222,11111222,11111222' 
TABS,ioos:station:wmo:42047:1,2009-06-18T15:30:00Z,27.8966,-93.5973,4.0,0.97867257,97.63373365,2.28,'11111222,11111222,11111222' 
TABS,ioos:station:wmo:42047:1,2009-06-18T16:00:00Z,27.8966,-93.5973,4.0,2.574898056,125.3569464,4.04,'11111222,11111222,11111222' 
TABS,ioos:station:wmo:42047:1,2009-06-18T16:30:00Z,27.8966,-93.5973,4.0,2.222521091,164.3381407,3.39,'11111222,11111222,11111222' 
TABS,ioos:station:wmo:42047:1,2009-06-18T17:00:00Z,27.8966,-93.5973,4.0,0.0,0.0,0.0,'11111222,11111222,11111222' 
TABS,ioos:station:wmo:42047:1,2009-06-18T17:30:00Z,27.8966,-93.5973,4.0,0.0,0.0,0.0,'11111222,11111222,11111222' 
TABS,ioos:station:wmo:42047:1,2009-06-18T18:00:00Z,27.8966,-93.5973,4.0,3.360297606,130.8975284,4.49,'11111222,11111222,11111222' 
TABS,ioos:station:wmo:42047:1,2009-06-18T18:30:00Z,27.8966,-93.5973,4.0,2.660695398,130.2746209,4.51,'11111222,11111222,11111222' 
TABS,ioos:station:wmo:42047:1,2009-06-18T19:00:00Z,27.8966,-93.5973,4.0,3.387462177,120.1228623,6.6,'11111222,11111222,11111222' 
TABS,ioos:station:wmo:42047:1,2009-06-18T19:30:00Z,27.8966,-93.5973,4.0,1.451344205,281.9292943,2.19,'11111222,11111222,11111222' 
TABS,ioos:station:wmo:42047:1,2009-06-18T20:00:00Z,27.8966,-93.5973,4.0,1.213960461,281.4024676,2.0,'11111222,11111222,11111222' 
TABS,ioos:station:wmo:42047:1,2009-06-18T20:30:00Z,27.8966,-93.5973,4.0,1.096357606,284.7967276,1.98,'11111222,11111222,11111222' 
TABS,ioos:station:wmo:42047:1,2009-06-18T21:00:00Z,27.8966,-93.5973,4.0,0.621288983,303.1784341,1.53,'11111222,11111222,11111222' 
TABS,ioos:station:wmo:42047:1,2009-06-18T21:30:00Z,27.8966,-93.5973,4.0,0.888875694,287.0079072,1.75,'11111222,11111222,11111222' 
TABS,ioos:station:wmo:42047:1,2009-06-18T22:00:00Z,27.8966,-93.5973,4.0,1.066255129,290.3044262,2.05,'11111222,11111222,11111222' 
TABS,ioos:station:wmo:42047:1,2009-06-18T22:30:00Z,27.8966,-93.5973,4.0,1.249079661,299.2327491,2.25,'11111222,11111222,11111222' 
TABS,ioos:station:wmo:42047:1,2009-06-18T23:00:00Z,27.8966,-93.5973,4.0,1.418238344,298.1912425,2.27,'11111222,11111222,11111222' 
TABS,ioos:station:wmo:42047:1,2009-06-18T23:30:00Z,27.8966,-93.5973,4.0,0.863307593,288.2250325,2.06,'11111222,11111222,11111222' 
TABS,ioos:station:wmo:42047:1,2009-06-19T00:00:00Z,27.8966,-93.5973,4.0,0.813203542,286.429263,2.0,'11111222,11111222,11111222' 
TABS,ioos:station:wmo:42047:1,2009-06-19T00:30:00Z,27.8966,-93.5973,4.0,1.473838526,289.4184253,2.78,'11111222,11111222,11111222' 
TABS,ioos:station:wmo:42047:1,2009-06-19T01:00:00Z,27.8966,-93.5973,4.0,1.330150367,293.4813358,2.64,'11111222,11111222,11111222' 
TABS,ioos:station:wmo:42047:1,2009-06-19T01:30:00Z,27.8966,-93.5973,4.0,1.268739532,290.2917202,2.37,'11111222,11111222,11111222' 
TABS,ioos:station:wmo:42047:1,2009-06-19T02:00:00Z,27.8966,-93.5973,4.0,1.555667059,309.5225389,2.58,'11111222,11111222,11111222' 
TABS,ioos:station:wmo:42047:1,2009-06-19T02:30:00Z,27.8966,-93.5973,4.0,1.415980226,312.1374962,2.3,'11111222,11111222,11111222' 
TABS,ioos:station:wmo:42047:1,2009-06-19T03:00:00Z,27.8966,-93.5973,4.0,1.080046295,323.6604782,2.67,'11111222,11111222,11111222' 
TABS,ioos:station:wmo:42047:1,2009-06-19T03:30:00Z,27.8966,-93.5973,4.0,0.771751255,58.78124932,3.95,'11111222,11111222,11111222' 
TABS,ioos:station:wmo:42047:1,2009-06-19T04:00:00Z,27.8966,-93.5973,4.0,0.759539334,80.90932342,1.81,'11111222,11111222,11111222' 
TABS,ioos:station:wmo:42047:1,2009-06-19T04:30:00Z,27.8966,-93.5973,4.0,1.039471019,97.74074398,3.27,'11111222,11111222,11111222' 
TABS,ioos:station:wmo:42047:1,2009-06-19T05:00:00Z,27.8966,-93.5973,4.0,0.582494635,78.11094884,2.9,'11111222,11111222,11111222' 
TABS,ioos:station:wmo:42047:1,2009-06-19T05:30:00Z,27.8966,-93.5973,4.0,1.567322558,111.3265895,3.83,'11111222,11111222,11111222' 
TABS,ioos:station:wmo:42047:1,2009-06-19T06:00:00Z,27.8966,-93.5973,4.0,2.178095498,115.8595445,3.72,'11111222,11111222,11111222' 
TABS,ioos:station:wmo:42047:1,2009-06-19T06:30:00Z,27.8966,-93.5973,4.0,1.405204611,106.1138015,3.31,'11111222,11111222,11111222' 
TABS,ioos:station:wmo:42047:1,2009-06-19T07:00:00Z,27.8966,-93.5973,4.0,2.75960142,117.4011057,4.87,'11111222,11111222,11111222' 
TABS,ioos:station:wmo:42047:1,2009-06-19T07:30:00Z,27.8966,-93.5973,4.0,3.738515748,113.822805,7.28,'11111222,11111222,11111222' 
TABS,ioos:station:wmo:42047:1,2009-06-19T08:00:00Z,27.8966,-93.5973,4.0,0.748865809,34.11418271,5.83,'11111222,11111222,11111222' 
TABS,ioos:station:wmo:42047:1,2009-06-19T08:30:00Z,27.8966,-93.5973,4.0,2.943331446,205.3463271,8.07,'11111222,11111222,11111222' 
TABS,ioos:station:wmo:42047:1,2009-06-19T09:00:00Z,27.8966,-93.5973,4.0,2.289803485,117.0130231,7.72,'11111222,11111222,11111222' 
TABS,ioos:station:wmo:42047:1,2009-06-19T09:30:00Z,27.8966,-93.5973,4.0,2.696312296,248.0013432,4.06,'11111222,11111222,11111222' 
TABS,ioos:station:wmo:42047:1,2009-06-19T10:00:00Z,27.8966,-93.5973,4.0,2.720294102,250.2328775,4.0,'11111222,11111222,11111222' 
TABS,ioos:station:wmo:42047:1,2009-06-19T10:30:00Z,27.8966,-93.5973,4.0,3.473010222,250.3129298,5.01,'11111222,11111222,11111222' 
TABS,ioos:station:wmo:42047:1,2009-06-19T11:00:00Z,27.8966,-93.5973,4.0,2.523529275,251.2779005,3.73,'11111222,11111222,11111222' 
TABS,ioos:station:wmo:42047:1,2009-06-19T11:30:00Z,27.8966,-93.5973,4.0,2.651075254,249.9246173,3.97,'11111222,11111222,11111222' 
TABS,ioos:station:wmo:42047:1,2009-06-19T12:00:00Z,27.8966,-93.5973,4.0,2.574101785,251.424319,3.75,'11111222,11111222,11111222' 
TABS,ioos:station:wmo:42047:1,2009-06-19T12:30:00Z,27.8966,-93.5973,4.0,2.251621638,251.0822772,3.51,'11111222,11111222,11111222' 
TABS,ioos:station:wmo:42047:1,2009-06-19T13:00:00Z,27.8966,-93.5973,4.0,2.776220452,247.7770758,3.88,'11111222,11111222,11111222' 
TABS,ioos:station:wmo:42047:1,2009-06-19T13:30:00Z,27.8966,-93.5973,4.0,2.467893839,248.1124179,3.7,'11111222,11111222,11111222' 
TABS,ioos:station:wmo:42047:1,2009-06-19T14:00:00Z,27.8966,-93.5973,4.0,2.692526694,242.5784953,3.79,'11111222,11111222,11111222' 
TABS,ioos:station:wmo:42047:1,2009-06-19T14:30:00Z,27.8966,-93.5973,4.0,2.262940565,243.7747045,3.26,'11111222,11111222,11111222' 
TABS,ioos:station:wmo:42047:1,2009-06-19T15:00:00Z,27.8966,-93.5973,4.0,2.149534833,246.4164652,3.2,'11111222,11111222,11111222' 
TABS,ioos:station:wmo:42047:1,2009-06-19T15:30:00Z,27.8966,-93.5973,4.0,2.516445906,237.8257496,3.35,'11111222,11111222,11111222' 
TABS,ioos:station:wmo:42047:1,2009-06-19T16:00:00Z,27.8966,-93.5973,4.0,2.056428944,234.3004621,3.14,'11111222,11111222,11111222' 
TABS,ioos:station:wmo:42047:1,2009-06-19T16:30:00Z,27.8966,-93.5973,4.0,1.675857989,224.7583529,3.3,'11111222,11111222,11111222' 
TABS,ioos:station:wmo:42047:1,2009-06-19T17:00:00Z,27.8966,-93.5973,4.0,0.973087869,202.3482665,3.13,'11111222,11111222,11111222' 
TABS,ioos:station:wmo:42047:1,2009-06-19T17:30:00Z,27.8966,-93.5973,4.0,3.457687088,231.3402821,4.92,'11111222,11111222,11111222' 
TABS,ioos:station:wmo:42047:1,2009-06-19T18:00:00Z,27.8966,-93.5973,4.0,0.913947482,287.8401626,2.11,'11111222,11111222,11111222' 
TABS,ioos:station:wmo:42047:1,2009-06-19T18:30:00Z,27.8966,-93.5973,4.0,1.499333185,170.7892055,4.34,'11111222,11111222,11111222' 
TABS,ioos:station:wmo:42047:1,2009-06-19T19:00:00Z,27.8966,-93.5973,4.0,1.743158054,138.7216203,3.53,'11111222,11111222,11111222' 
TABS,ioos:station:wmo:42047:1,2009-06-19T19:30:00Z,27.8966,-93.5973,4.0,2.451774867,151.762831,3.79,'11111222,11111222,11111222' 
TABS,ioos:station:wmo:42047:1,2009-06-19T20:00:00Z,27.8966,-93.5973,4.0,2.428662183,149.8457331,3.93,'11111222,11111222,11111222' 
TABS,ioos:station:wmo:42047:1,2009-06-19T20:30:00Z,27.8966,-93.5973,4.0,2.599769221,162.5410487,3.79,'11111222,11111222,11111222' 
TABS,ioos:station:wmo:42047:1,2009-06-19T21:00:00Z,27.8966,-93.5973,4.0,1.84439692,146.0517469,3.93,'11111222,11111222,11111222' 
TABS,ioos:station:wmo:42047:1,2009-06-19T21:30:00Z,27.8966,-93.5973,4.0,2.064218981,193.1612325,6.68,'11111222,11111222,11111222' 
TABS,ioos:station:wmo:42047:1,2009-06-19T22:00:00Z,27.8966,-93.5973,4.0,1.924266094,142.1775448,4.18,'11111222,11111222,11111222' 
TABS,ioos:station:wmo:42047:1,2009-06-19T22:30:00Z,27.8966,-93.5973,4.0,2.740547391,149.0365263,4.38,'11111222,11111222,11111222' 
TABS,ioos:station:wmo:42047:1,2009-06-19T23:00:00Z,27.8966,-93.5973,4.0,3.102289477,209.1265007,6.19,'11111222,11111222,11111222' 
TABS,ioos:station:wmo:42047:1,2009-06-19T23:30:00Z,27.8966,-93.5973,4.0,0.0,0.0,0.0,'11111222,11111222,11111222' 
TABS,ioos:station:wmo:42047:1,2009-06-20T00:00:00Z,27.8966,-93.5973,4.0,0.0,0.0,0.0,'11111222,11111222,11111222' 
TABS,ioos:station:wmo:42047:1,2009-06-20T00:30:00Z,27.8966,-93.5973,4.0,0.0,0.0,0.0,'11111222,11111222,11111222' 
TABS,ioos:station:wmo:42047:1,2009-06-20T01:00:00Z,27.8966,-93.5973,4.0,0.0,0.0,0.0,'11111222,11111222,11111222' 
TABS,ioos:station:wmo:42047:1,2009-06-20T01:30:00Z,27.8966,-93.5973,4.0,0.0,0.0,0.0,'11111222,11111222,11111222' 
TABS,ioos:station:wmo:42047:1,2009-06-20T02:00:00Z,27.8966,-93.5973,4.0,0.0,0.0,0.0,'11111222,11111222,11111222' 
TABS,ioos:station:wmo:42047:1,2009-06-20T02:30:00Z,27.8966,-93.5973,4.0,0.0,0.0,0.0,'11111222,11111222,11111222' 
TABS,ioos:station:wmo:42047:1,2009-06-20T03:00:00Z,27.8966,-93.5973,4.0,0.0,0.0,0.0,'11111222,11111222,11111222' 
TABS,ioos:station:wmo:42047:1,2009-06-20T03:30:00Z,27.8966,-93.5973,4.0,0.0,0.0,0.0,'11111222,11111222,11111222' 
TABS,ioos:station:wmo:42047:1,2009-06-20T04:00:00Z,27.8966,-93.5973,4.0,0.0,0.0,0.0,'11111222,11111222,11111222' 
TABS,ioos:station:wmo:42047:1,2009-06-20T04:30:00Z,27.8966,-93.5973,4.0,0.0,0.0,0.0,'11111222,11111222,11111222' 
TABS,ioos:station:wmo:42047:1,2009-06-20T05:00:00Z,27.8966,-93.5973,4.0,0.0,0.0,0.0,'11111222,11111222,11111222' 
TABS,ioos:station:wmo:42047:1,2009-06-20T05:30:00Z,27.8966,-93.5973,4.0,0.0,0.0,0.0,'11111222,11111222,11111222' 
TABS,ioos:station:wmo:42047:1,2009-06-20T06:00:00Z,27.8966,-93.5973,4.0,0.0,0.0,0.0,'11111222,11111222,11111222' 
TABS,ioos:station:wmo:42047:1,2009-06-20T06:30:00Z,27.8966,-93.5973,4.0,0.0,0.0,0.0,'11111222,11111222,11111222' 
TABS,ioos:station:wmo:42047:1,2009-06-20T07:00:00Z,27.8966,-93.5973,4.0,0.0,0.0,0.0,'11111222,11111222,11111222' 
TABS,ioos:station:wmo:42047:1,2009-06-20T07:30:00Z,27.8966,-93.5973,4.0,0.0,0.0,0.0,'11111222,11111222,11111222' 
TABS,ioos:station:wmo:42047:1,2009-06-20T08:00:00Z,27.8966,-93.5973,4.0,0.0,0.0,0.0,'11111222,11111222,11111222' 
TABS,ioos:station:wmo:42047:1,2009-06-20T08:30:00Z,27.8966,-93.5973,4.0,0.0,0.0,0.0,'11111222,11111222,11111222' 
TABS,ioos:station:wmo:42047:1,2009-06-20T09:00:00Z,27.8966,-93.5973,4.0,0.0,0.0,0.0,'11111222,11111222,11111222' 
TABS,ioos:station:wmo:42047:1,2009-06-20T09:30:00Z,27.8966,-93.5973,4.0,0.0,0.0,0.0,'11111222,11111222,11111222' 
TABS,ioos:station:wmo:42047:1,2009-06-20T10:00:00Z,27.8966,-93.5973,4.0,0.0,0.0,0.0,'11111222,11111222,11111222' 
TABS,ioos:station:wmo:42047:1,2009-06-20T10:30:00Z,27.8966,-93.5973,4.0,0.0,0.0,0.0,'11111222,11111222,11111222' 
TABS,ioos:station:wmo:42047:1,2009-06-20T11:00:00Z,27.8966,-93.5973,4.0,0.0,0.0,0.0,'11111222,11111222,11111222' 
TABS,ioos:station:wmo:42047:1,2009-06-20T11:30:00Z,27.8966,-93.5973,4.0,0.0,0.0,0.0,'11111222,11111222,11111222' 
TABS,ioos:station:wmo:42047:1,2009-06-20T12:00:00Z,27.8966,-93.5973,4.0,0.0,0.0,0.0,'11111222,11111222,11111222' 
TABS,ioos:station:wmo:42047:1,2009-06-20T12:30:00Z,27.8966,-93.5973,4.0,0.0,0.0,0.0,'11111222,11111222,11111222' 
TABS,ioos:station:wmo:42047:1,2009-06-20T13:00:00Z,27.8966,-93.5973,4.0,0.0,0.0,0.0,'11111222,11111222,11111222' 
TABS,ioos:station:wmo:42047:1,2009-06-20T13:30:00Z,27.8966,-93.5973,4.0,0.0,0.0,0.0,'11111222,11111222,11111222' 
TABS,ioos:station:wmo:42047:1,2009-06-20T14:00:00Z,27.8966,-93.5973,4.0,0.0,0.0,0.0,'11111222,11111222,11111222' 
TABS,ioos:station:wmo:42047:1,2009-06-20T14:30:00Z,27.8966,-93.5973,4.0,0.0,0.0,0.0,'11111222,11111222,11111222' 
TABS,ioos:station:wmo:42047:1,2009-06-20T15:00:00Z,27.8966,-93.5973,4.0,0.0,0.0,0.0,'11111222,11111222,11111222' 
TABS,ioos:station:wmo:42047:1,2009-06-20T15:30:00Z,27.8966,-93.5973,4.0,0.0,0.0,0.0,'11111222,11111222,11111222' 
TABS,ioos:station:wmo:42047:1,2009-06-20T16:00:00Z,27.8966,-93.5973,4.0,0.0,0.0,0.0,'11111222,11111222,11111222' 
TABS,ioos:station:wmo:42047:1,2009-06-20T16:30:00Z,27.8966,-93.5973,4.0,0.0,0.0,0.0,'11111222,11111222,11111222' 
TABS,ioos:station:wmo:42047:1,2009-06-20T17:00:00Z,27.8966,-93.5973,4.0,0.0,0.0,0.0,'11111222,11111222,11111222' 
TABS,ioos:station:wmo:42047:1,2009-06-20T17:30:00Z,27.8966,-93.5973,4.0,0.0,0.0,0.0,'11111222,11111222,11111222' 
TABS,ioos:station:wmo:42047:1,2009-06-20T18:00:00Z,27.8966,-93.5973,4.0,0.0,0.0,0.0,'11111222,11111222,11111222' 
TABS,ioos:station:wmo:42047:1,2009-06-20T18:30:00Z,27.8966,-93.5973,4.0,0.0,0.0,0.0,'11111222,11111222,11111222' 
TABS,ioos:station:wmo:42047:1,2009-06-20T19:00:00Z,27.8966,-93.5973,4.0,0.0,0.0,0.0,'11111222,11111222,11111222' 
TABS,ioos:station:wmo:42047:1,2009-06-20T19:30:00Z,27.8966,-93.5973,4.0,0.0,0.0,0.0,'11111222,11111222,11111222' 
TABS,ioos:station:wmo:42047:1,2009-06-20T20:00:00Z,27.8966,-93.5973,4.0,0.0,0.0,0.0,'11111222,11111222,11111222' 
TABS,ioos:station:wmo:42047:1,2009-06-20T20:30:00Z,27.8966,-93.5973,4.0,0.0,0.0,0.0,'11111222,11111222,11111222' 
TABS,ioos:station:wmo:42047:1,2009-06-20T21:00:00Z,27.8966,-93.5973,4.0,0.0,0.0,0.0,'11111222,11111222,11111222' 
TABS,ioos:station:wmo:42047:1,2009-06-20T21:30:00Z,27.8966,-93.5973,4.0,0.0,0.0,0.0,'11111222,11111222,11111222' 
TABS,ioos:station:wmo:42047:1,2009-06-20T22:00:00Z,27.8966,-93.5973,4.0,0.0,0.0,0.0,'11111222,11111222,11111222' 
TABS,ioos:station:wmo:42047:1,2009-06-20T22:30:00Z,27.8966,-93.5973,4.0,0.0,0.0,0.0,'11111222,11111222,11111222' 
TABS,ioos:station:wmo:42047:1,2009-06-20T23:00:00Z,27.8966,-93.5973,4.0,0.0,0.0,0.0,'11111222,11111222,11111222' 
TABS,ioos:station:wmo:42047:1,2009-06-21T00:00:00Z,27.8966,-93.5973,4.0,0.0,0.0,0.0,'11111222,11111222,11111222' 
TABS,ioos:station:wmo:42047:1,2009-06-21T00:30:00Z,27.8966,-93.5973,4.0,0.0,0.0,0.0,'11111222,11111222,11111222' 
TABS,ioos:station:wmo:42047:1,2009-06-21T01:00:00Z,27.8966,-93.5973,4.0,0.0,0.0,0.0,'11111222,11111222,11111222' 
TABS,ioos:station:wmo:42047:1,2009-06-21T01:30:00Z,27.8966,-93.5973,4.0,0.0,0.0,0.0,'11111222,11111222,11111222' 
TABS,ioos:station:wmo:42047:1,2009-06-21T02:00:00Z,27.8966,-93.5973,4.0,0.0,0.0,0.0,'11111222,11111222,11111222' 
TABS,ioos:station:wmo:42047:1,2009-06-21T02:30:00Z,27.8966,-93.5973,4.0,0.0,0.0,0.0,'11111222,11111222,11111222' 
TABS,ioos:station:wmo:42047:1,2009-06-21T03:00:00Z,27.8966,-93.5973,4.0,0.0,0.0,0.0,'11111222,11111222,11111222' 
TABS,ioos:station:wmo:42047:1,2009-06-21T03:30:00Z,27.8966,-93.5973,4.0,0.0,0.0,0.0,'11111222,11111222,11111222' 
TABS,ioos:station:wmo:42047:1,2009-06-21T04:00:00Z,27.8966,-93.5973,4.0,0.0,0.0,0.0,'11111222,11111222,11111222' 
TABS,ioos:station:wmo:42047:1,2009-06-21T04:30:00Z,27.8966,-93.5973,4.0,0.0,0.0,0.0,'11111222,11111222,11111222' 
TABS,ioos:station:wmo:42047:1,2009-06-21T05:00:00Z,27.8966,-93.5973,4.0,0.0,0.0,0.0,'11111222,11111222,11111222' 
TABS,ioos:station:wmo:42047:1,2009-06-21T05:30:00Z,27.8966,-93.5973,4.0,0.0,0.0,0.0,'11111222,11111222,11111222' 
TABS,ioos:station:wmo:42047:1,2009-06-21T06:00:00Z,27.8966,-93.5973,4.0,0.0,0.0,0.0,'11111222,11111222,11111222' 
TABS,ioos:station:wmo:42047:1,2009-06-21T06:30:00Z,27.8966,-93.5973,4.0,0.0,0.0,0.0,'11111222,11111222,11111222' 
TABS,ioos:station:wmo:42047:1,2009-06-21T07:00:00Z,27.8966,-93.5973,4.0,0.0,0.0,0.0,'11111222,11111222,11111222' 
TABS,ioos:station:wmo:42047:1,2009-06-21T07:30:00Z,27.8966,-93.5973,4.0,0.0,0.0,0.0,'11111222,11111222,11111222' 
TABS,ioos:station:wmo:42047:1,2009-06-21T08:00:00Z,27.8966,-93.5973,4.0,0.0,0.0,0.0,'11111222,11111222,11111222' 
TABS,ioos:station:wmo:42047:1,2009-06-21T08:30:00Z,27.8966,-93.5973,4.0,0.0,0.0,0.0,'11111222,11111222,11111222' 
TABS,ioos:station:wmo:42047:1,2009-06-21T09:00:00Z,27.8966,-93.5973,4.0,0.0,0.0,0.0,'11111222,11111222,11111222' 
TABS,ioos:station:wmo:42047:1,2009-06-21T09:30:00Z,27.8966,-93.5973,4.0,0.0,0.0,0.0,'11111222,11111222,11111222' 
TABS,ioos:station:wmo:42047:1,2009-06-21T10:00:00Z,27.8966,-93.5973,4.0,0.0,0.0,0.0,'11111222,11111222,11111222' 
TABS,ioos:station:wmo:42047:1,2009-06-21T10:30:00Z,27.8966,-93.5973,4.0,0.0,0.0,0.0,'11111222,11111222,11111222' 
TABS,ioos:station:wmo:42047:1,2009-06-21T11:00:00Z,27.8966,-93.5973,4.0,0.0,0.0,0.0,'11111222,11111222,11111222' 
TABS,ioos:station:wmo:42047:1,2009-06-21T11:30:00Z,27.8966,-93.5973,4.0,0.0,0.0,0.0,'11111222,11111222,11111222' 
TABS,ioos:station:wmo:42047:1,2009-06-21T12:00:00Z,27.8966,-93.5973,4.0,0.0,0.0,0.0,'11111222,11111222,11111222' 
TABS,ioos:station:wmo:42047:1,2009-06-21T12:30:00Z,27.8966,-93.5973,4.0,0.0,0.0,0.0,'11111222,11111222,11111222' 
TABS,ioos:station:wmo:42047:1,2009-06-21T13:00:00Z,27.8966,-93.5973,4.0,0.0,0.0,0.0,'11111222,11111222,11111222' 
TABS,ioos:station:wmo:42047:1,2009-06-21T13:30:00Z,27.8966,-93.5973,4.0,0.0,0.0,0.0,'11111222,11111222,11111222' 
TABS,ioos:station:wmo:42047:1,2009-06-21T14:00:00Z,27.8966,-93.5973,4.0,0.0,0.0,0.0,'11111222,11111222,11111222' 
TABS,ioos:station:wmo:42047:1,2009-06-21T14:30:00Z,27.8966,-93.5973,4.0,0.0,0.0,0.0,'11111222,11111222,11111222' 
TABS,ioos:station:wmo:42047:1,2009-06-21T15:00:00Z,27.8966,-93.5973,4.0,0.0,0.0,0.0,'11111222,11111222,11111222' 
TABS,ioos:station:wmo:42047:1,2009-06-21T15:30:00Z,27.8966,-93.5973,4.0,0.0,0.0,0.0,'11111222,11111222,11111222' 
TABS,ioos:station:wmo:42047:1,2009-06-21T16:00:00Z,27.8966,-93.5973,4.0,0.0,0.0,0.0,'11111222,11111222,11111222' 
TABS,ioos:station:wmo:42047:1,2009-06-21T16:30:00Z,27.8966,-93.5973,4.0,0.0,0.0,0.0,'11111222,11111222,11111222' 
TABS,ioos:station:wmo:42047:1,2009-06-21T17:00:00Z,27.8966,-93.5973,4.0,0.0,0.0,0.0,'11111222,11111222,11111222' 
TABS,ioos:station:wmo:42047:1,2009-06-21T17:30:00Z,27.8966,-93.5973,4.0,0.0,0.0,0.0,'11111222,11111222,11111222' 
TABS,ioos:station:wmo:42047:1,2009-06-21T18:00:00Z,27.8966,-93.5973,4.0,0.0,0.0,0.0,'11111222,11111222,11111222' 
TABS,ioos:station:wmo:42047:1,2009-06-21T18:30:00Z,27.8966,-93.5973,4.0,0.0,0.0,0.0,'11111222,11111222,11111222' 
TABS,ioos:station:wmo:42047:1,2009-06-21T19:00:00Z,27.8966,-93.5973,4.0,0.0,0.0,0.0,'11111222,11111222,11111222' 
TABS,ioos:station:wmo:42047:1,2009-06-21T19:30:00Z,27.8966,-93.5973,4.0,0.0,0.0,0.0,'11111222,11111222,11111222' 
TABS,ioos:station:wmo:42047:1,2009-06-21T20:00:00Z,27.8966,-93.5973,4.0,0.0,0.0,0.0,'11111222,11111222,11111222' 
TABS,ioos:station:wmo:42047:1,2009-06-21T20:30:00Z,27.8966,-93.5973,4.0,0.0,0.0,0.0,'11111222,11111222,11111222' 
TABS,ioos:station:wmo:42047:1,2009-06-21T21:00:00Z,27.8966,-93.5973,4.0,0.0,0.0,0.0,'11111222,11111222,11111222' 
TABS,ioos:station:wmo:42047:1,2009-06-21T21:30:00Z,27.8966,-93.5973,4.0,0.0,0.0,0.0,'11111222,11111222,11111222' 
TABS,ioos:station:wmo:42047:1,2009-06-21T22:00:00Z,27.8966,-93.5973,4.0,0.0,0.0,0.0,'11111222,11111222,11111222' 
TABS,ioos:station:wmo:42047:1,2009-06-21T22:30:00Z,27.8966,-93.5973,4.0,0.0,0.0,0.0,'11111222,11111222,11111222' 
TABS,ioos:station:wmo:42047:1,2009-06-21T23:00:00Z,27.8966,-93.5973,4.0,0.0,0.0,0.0,'11111222,11111222,11111222' 
TABS,ioos:station:wmo:42047:1,2009-06-21T23:30:00Z,27.8966,-93.5973,4.0,0.0,0.0,0.0,'11111222,11111222,11111222' 
TABS,ioos:station:wmo:42047:1,2009-06-22T00:00:00Z,27.8966,-93.5973,4.0,0.0,0.0,0.0,'11111222,11111222,11111222' 
TABS,ioos:station:wmo:42047:1,2009-06-22T00:30:00Z,27.8966,-93.5973,4.0,0.0,0.0,0.0,'11111222,11111222,11111222' 
TABS,ioos:station:wmo:42047:1,2009-06-22T01:00:00Z,27.8966,-93.5973,4.0,0.0,0.0,0.0,'11111222,11111222,11111222' 
TABS,ioos:station:wmo:42047:1,2009-06-22T01:30:00Z,27.8966,-93.5973,4.0,0.0,0.0,0.0,'11111222,11111222,11111222' 